Brownsville, TX

8:09 AM CDT on July 25, 2017 (GMT -0500)
Brownsville-South Padre I International

Weather History for KBRO - August, 2013

Change the Weather History Date:

Thursday, August 22, 2013

  Actual Average Record
Temperature  
Mean Temperature 85 °F 85 °F  
Max Temperature 90 °F 94 °F 99 °F (1883)
Min Temperature 79 °F 76 °F 68 °F (1946)
Degree Days  
Heating Degree Days 0 0  
Month to date heating degree days 0 0  
Since 1 June heating degree days 0 0  
Since 1 July heating degree days 0 0  
Cooling Degree Days 20 20  
Month to date cooling degree days 482 456  
Year to date cooling degree days 2859 2734  
Since 1 June cooling degree days 1737 1641  
Growing Degree Days 34 (Base 50)    
Moisture  
Dew Point 77 °F    
Average Humidity 81    
Maximum Humidity 97    
Minimum Humidity 64    
Precipitation  
Precipitation 0.12 in 0.09 in 4.39 in (1951)
Month to date precipitation 0.73 1.48  
Year to date precipitation 9.31 13.85  
Sea Level Pressure  
Sea Level Pressure 29.98 in    
Wind  
Wind Speed 4 mph (ENE)    
Max Wind Speed 14 mph    
Max Gust Speed 16 mph    
Visibility 10 miles    
Events Rain    
T = Trace of Precipitation, MM = Missing Value Source: NWS Daily Summary

Daily Weather History Graph

Daily Weather History Graph

Search for Another Location

Airport or City:

Trip Planner

Search our weather history database for the weather conditions in past years. The results will help you decide how hot, cold, wet, or windy it might be!

Date:

Astronomy

Aug. 22, 2013 Rise Set
Actual Time 7:05 AM CDT 7:58 PM CDT
Civil Twilight 6:42 AM CDT 8:22 PM CDT
Nautical Twilight 6:14 AM CDT 8:50 PM CDT
Astronomical Twilight 5:45 AM CDT 9:19 PM CDT
Moon 9:03 PM CDT (8/22) 8:39 AM CDT (8/22)
Length of Visible Light 13h 40m
Length of Day
12h 52m
Waning Gibbous, 96% of the Moon is Illuminated
Aug 22
Waning Gibbous
Aug 28
Last Quarter
Sep 5
New
Sep 12
First Quarter
Sep 19
Full

Hourly Weather History & Observations

Time (CDT) Temp. Heat Index Dew Point Humidity Pressure Visibility Wind Dir Wind Speed Gust Speed Precip Events Conditions
12:53 AM 81.0 °F 87.9 °F 77.0 °F 88% 30.01 in 10.0 mi Calm Calm - N/A   Clear
1:53 AM 81.0 °F 88.6 °F 78.1 °F 91% 30.00 in 10.0 mi Calm Calm - N/A   Clear
2:53 AM 80.1 °F 86.4 °F 78.1 °F 94% 29.99 in 10.0 mi Calm Calm - N/A   Clear
3:53 AM 80.1 °F 85.8 °F 77.0 °F 90% 29.98 in 10.0 mi Calm Calm - N/A   Clear
4:53 AM 80.1 °F 86.4 °F 78.1 °F 94% 29.97 in 10.0 mi ENE 3.5 mph - N/A   Clear
5:53 AM 80.1 °F 86.4 °F 78.1 °F 94% 29.97 in 10.0 mi Calm Calm - N/A   Clear
6:53 AM 79.0 °F - 77.0 °F 94% 29.97 in 10.0 mi ENE 3.5 mph - N/A   Clear
7:53 AM 80.1 °F 86.7 °F 79.0 °F 96% 29.99 in 10.0 mi NE 4.6 mph - N/A   Clear
8:53 AM 82.9 °F 93.8 °F 79.0 °F 88% 30.01 in 10.0 mi East 3.5 mph - N/A   Clear
9:53 AM 87.1 °F 98.8 °F 77.0 °F 72% 30.02 in 10.0 mi East 5.8 mph - N/A   Scattered Clouds
10:22 AM 87.8 °F 97.6 °F 75.2 °F 66% 30.02 in 10.0 mi SE 4.6 mph - N/A   Mostly Cloudy
10:53 AM 87.1 °F 97.3 °F 75.9 °F 69% 30.02 in 10.0 mi East 8.1 mph - N/A   Scattered Clouds
11:53 AM 90.0 °F 101.3 °F 75.9 °F 63% 30.01 in 10.0 mi ESE 3.5 mph - 0.11 in   Clear
12:53 PM 82.9 °F 91.8 °F 77.0 °F 82% 29.99 in 10.0 mi NNW 5.8 mph - 0.01 in Rain Light Rain
1:53 PM 80.1 °F 85.1 °F 75.0 °F 85% 29.99 in 10.0 mi Variable 6.9 mph - 0.00 in Rain Light Rain
2:53 PM 82.0 °F 87.9 °F 73.9 °F 76% 29.98 in 10.0 mi West 6.9 mph - 0.00 in   Clear
3:53 PM 82.0 °F 90.2 °F 77.0 °F 85% 29.95 in 10.0 mi NNE 3.5 mph - N/A   Clear
4:53 PM 84.9 °F 94.1 °F 75.9 °F 74% 29.94 in 10.0 mi East 3.5 mph - N/A   Clear
5:53 PM 84.9 °F 93.3 °F 75.0 °F 72% 29.93 in 10.0 mi East 5.8 mph - N/A   Clear
6:53 PM 84.0 °F 92.6 °F 75.9 °F 76% 29.93 in 10.0 mi ENE 4.6 mph - N/A   Clear
7:53 PM 82.9 °F 91.8 °F 77.0 °F 82% 29.93 in 10.0 mi ENE 5.8 mph - N/A   Clear
8:53 PM 81.0 °F 87.9 °F 77.0 °F 88% 29.94 in 10.0 mi East 5.8 mph - N/A   Clear
9:53 PM 81.0 °F 87.9 °F 77.0 °F 88% 29.96 in 10.0 mi ENE 3.5 mph - N/A   Clear
10:53 PM 80.1 °F 85.4 °F 75.9 °F 87% 29.97 in 10.0 mi Calm Calm - N/A   Clear
11:53 PM 80.1 °F 85.4 °F 75.9 °F 87% 29.96 in 10.0 mi ENE 3.5 mph - N/A   Clear